Location: Amsterdam
(30.7274°N, 84.4357°W)
Time: 21:37:55
(UTC+00:00)

Explorer 11/Cluster Stage 4 - Pass Details

Date: 23 February 2026
Orbit: 463 x 1176 km, 28.8° (Epoch: 9 March)

Event Time Altitude Azimuth Distance (km) Brightness Sun altitude
Rises 19:38:53 0° 273° (W) 2,944 9.9 42.1°
Reaches altitude 10° 19:41:29 10° 267° (W) 1,922 9.2 41.7°
Maximum altitude 19:45:40 45° 194° (SSW) 719 8.2 41.2°
Drops below altitude 10° 19:49:17 10° 121° (ESE) 1,664 8.3 40.7°
Sets 19:51:24 0° 114° (ESE) 2,501 9.1 40.4°
